Wetterdaten: aktuell Dienstag, 26.03.2019 23:30
Datum Zeit Temp. I. Temp. A. Feuchte A. Luftdruck Regen Wind Richtung Richtung Sonnenschein Taupunkt Windchill Windben
26.03.2019 23:30 21,7 C 4,1 C 83 % 1024,3 hPa 0,0 l/m 4,3 km/h (1 Bft) W 270 0 min 1,5 C 4,1 C 5,8 km/h (2 Bft)
26.03.2019 23:20 21,8 C 4,2 C 83 % 1024,3 hPa 0,0 l/m 4,8 km/h (1 Bft) W-SW 247 0 min 1,6 C 4,2 C 8,5 km/h (2 Bft)
26.03.2019 23:10 21,8 C 4,2 C 83 % 1024,3 hPa 0,0 l/m 4,7 km/h (1 Bft) W 270 0 min 1,6 C 4,2 C 5,8 km/h (2 Bft)
26.03.2019 23:00 21,8 C 4,3 C 83 % 1024,1 hPa 0,0 l/m 5,1 km/h (1 Bft) NW 315 0 min 1,7 C 4,3 C 4,2 km/h (1 Bft)
26.03.2019 22:50 21,8 C 4,4 C 83 % 1024,1 hPa 0,0 l/m 4,5 km/h (1 Bft) W-SW 247 0 min 1,8 C 4,4 C 7,1 km/h (2 Bft)
26.03.2019 22:40 21,9 C 4,5 C 83 % 1023,8 hPa 0,0 l/m 5,0 km/h (1 Bft) SW 225 0 min 1,9 C 4,5 C 6,6 km/h (2 Bft)
26.03.2019 22:30 21,9 C 4,5 C 83 % 1023,8 hPa 0,0 l/m 4,7 km/h (1 Bft) W 270 0 min 1,9 C 4,5 C 8,7 km/h (2 Bft)
26.03.2019 22:20 22,0 C 4,5 C 83 % 1023,7 hPa 0,0 l/m 4,7 km/h (1 Bft) W-SW 247 0 min 1,9 C 4,5 C 4,3 km/h (1 Bft)
26.03.2019 22:10 22,0 C 4,6 C 83 % 1023,7 hPa 0,0 l/m 4,7 km/h (1 Bft) NW 315 0 min 2,0 C 4,6 C 2,4 km/h (1 Bft)
26.03.2019 22:00 22,0 C 4,6 C 83 % 1023,4 hPa 0,0 l/m 5,5 km/h (1 Bft) W 270 0 min 2,0 C 4,6 C 9,3 km/h (2 Bft)
26.03.2019 21:50 21,9 C 4,6 C 83 % 1023,4 hPa 0,0 l/m 5,3 km/h (1 Bft) NW 315 0 min 2,0 C 4,6 C 6,4 km/h (2 Bft)
26.03.2019 21:40 21,9 C 4,5 C 83 % 1023,3 hPa 0,0 l/m 6,3 km/h (2 Bft) NW 315 0 min 1,9 C 4,5 C 8,2 km/h (2 Bft)
26.03.2019 21:30 21,8 C 4,5 C 82 % 1023,3 hPa 0,0 l/m 6,4 km/h (2 Bft) W 270 0 min 1,7 C 4,5 C 7,9 km/h (2 Bft)
26.03.2019 21:20 21,8 C 4,5 C 82 % 1023,1 hPa 0,0 l/m 6,0 km/h (2 Bft) NW 315 0 min 1,7 C 4,5 C 9,7 km/h (2 Bft)
26.03.2019 21:10 21,8 C 4,5 C 82 % 1023,1 hPa 0,0 l/m 6,3 km/h (2 Bft) W 270 0 min 1,7 C 4,5 C 11,4 km/h (2 Bft)
26.03.2019 21:00 21,7 C 4,4 C 83 % 1022,9 hPa 0,0 l/m 5,6 km/h (1 Bft) W 270 0 min 1,8 C 4,4 C 7,4 km/h (2 Bft)
26.03.2019 20:50 21,6 C 4,4 C 83 % 1022,9 hPa 0,0 l/m 6,0 km/h (2 Bft) N-NW 337 0 min 1,8 C 4,4 C 8,0 km/h (2 Bft)
26.03.2019 20:40 21,6 C 4,3 C 83 % 1022,8 hPa 0,0 l/m 5,1 km/h (1 Bft) N-NW 337 0 min 1,7 C 4,3 C 6,6 km/h (2 Bft)
26.03.2019 20:30 21,5 C 4,3 C 83 % 1022,8 hPa 0,0 l/m 5,6 km/h (1 Bft) W 270 0 min 1,7 C 4,3 C 7,1 km/h (2 Bft)
26.03.2019 20:20 21,4 C 4,2 C 83 % 1022,6 hPa 0,0 l/m 5,6 km/h (1 Bft) W 270 0 min 1,6 C 4,2 C 5,6 km/h (1 Bft)
26.03.2019 20:10 21,2 C 4,3 C 83 % 1022,6 hPa 0,0 l/m 5,3 km/h (1 Bft) NW 315 0 min 1,7 C 4,3 C 7,6 km/h (2 Bft)
26.03.2019 20:00 21,3 C 4,3 C 82 % 1022,1 hPa 0,0 l/m 5,8 km/h (2 Bft) W-SW 247 0 min 1,5 C 4,3 C 4,3 km/h (1 Bft)
26.03.2019 19:49 21,2 C 4,2 C 82 % 1022,1 hPa 0,0 l/m 7,1 km/h (2 Bft) W 270 0 min 1,4 C 3,6 C 10,8 km/h (2 Bft)
26.03.2019 19:40 21,2 C 4,2 C 82 % 1021,8 hPa 0,0 l/m 7,2 km/h (2 Bft) W-SW 247 0 min 1,4 C 3,5 C 7,4 km/h (2 Bft)
26.03.2019 19:30 21,2 C 4,1 C 82 % 1021,8 hPa 0,0 l/m 7,1 km/h (2 Bft) W 270 0 min 1,3 C 3,5 C 8,9 km/h (2 Bft)
26.03.2019 19:20 21,1 C 3,9 C 82 % 1021,4 hPa 0,0 l/m 8,2 km/h (2 Bft) N-NO 22 0 min 1,1 C 2,3 C 8,2 km/h (2 Bft)
26.03.2019 19:10 21,1 C 4,1 C 81 % 1021,4 hPa 0,0 l/m 8,4 km/h (2 Bft) W 270 0 min 1,1 C 2,3 C 14,3 km/h (3 Bft)
26.03.2019 19:00 21,0 C 4,2 C 80 % 1021,4 hPa 0,0 l/m 11,6 km/h (2 Bft) SW 225 0 min 1,1 C 0,1 C 8,9 km/h (2 Bft)
26.03.2019 18:50 21,0 C 5,1 C 75 % 1021,4 hPa 0,0 l/m 8,5 km/h (2 Bft) W-NW 292 0 min 1,0 C 3,3 C 10,5 km/h (2 Bft)
26.03.2019 18:40 21,0 C 5,7 C 71 % 1020,6 hPa 0,0 l/m 6,3 km/h (2 Bft) W 270 0 min 0,9 C 5,7 C 11,1 km/h (2 Bft)
26.03.2019 18:30 21,0 C 5,7 C 71 % 1020,6 hPa 0,0 l/m 7,6 km/h (2 Bft) W-SW 247 0 min 0,9 C 4,7 C 7,7 km/h (2 Bft)
26.03.2019 18:20 21,0 C 5,6 C 71 % 1020,4 hPa 0,0 l/m 6,6 km/h (2 Bft) NW 315 0 min 0,8 C 5,4 C 4,5 km/h (1 Bft)
26.03.2019 18:10 21,1 C 5,7 C 71 % 1020,4 hPa 0,0 l/m 7,7 km/h (2 Bft) W-SW 247 0 min 0,9 C 4,6 C 9,0 km/h (2 Bft)
26.03.2019 18:00 21,1 C 5,8 C 69 % 1020,7 hPa 0,0 l/m 6,4 km/h (2 Bft) W-SW 247 0 min 0,6 C 5,8 C 8,5 km/h (2 Bft)
26.03.2019 17:50 21,2 C 5,9 C 68 % 1020,7 hPa 0,0 l/m 8,9 km/h (2 Bft) W 270 0 min 0,5 C 3,9 C 4,8 km/h (1 Bft)
26.03.2019 17:40 21,2 C 6,0 C 66 % 1020,4 hPa 0,0 l/m 9,8 km/h (2 Bft) NW 315 0 min 0,1 C 3,3 C 16,6 km/h (3 Bft)
26.03.2019 17:30 21,2 C 6,2 C 64 % 1020,4 hPa 0,0 l/m 8,4 km/h (2 Bft) W-SW 247 0 min -0,1 C 4,6 C 9,7 km/h (2 Bft)
26.03.2019 17:20 21,2 C 6,2 C 64 % 1020,5 hPa 0,0 l/m 9,2 km/h (2 Bft) W 270 0 min -0,1 C 4,0 C 17,7 km/h (3 Bft)
26.03.2019 17:10 21,4 C 6,2 C 63 % 1020,5 hPa 0,0 l/m 10,8 km/h (2 Bft) W-SW 247 0 min -0,3 C 2,9 C 11,4 km/h (2 Bft)
26.03.2019 17:00 21,4 C 6,2 C 62 % 1020,6 hPa 0,0 l/m 10,1 km/h (2 Bft) NW 315 0 min -0,5 C 3,3 C 12,9 km/h (3 Bft)
26.03.2019 16:50 21,4 C 6,1 C 62 % 1020,6 hPa 0,0 l/m 11,6 km/h (2 Bft) W 270 0 min -0,6 C 2,3 C 11,6 km/h (2 Bft)
26.03.2019 16:40 21,5 C 6,1 C 62 % 1020,8 hPa 0,0 l/m 10,3 km/h (2 Bft) W 270 0 min -0,6 C 3,1 C 13,0 km/h (3 Bft)
26.03.2019 16:30 21,6 C 6,1 C 62 % 1020,8 hPa 0,0 l/m 10,5 km/h (2 Bft) W-NW 292 0 min -0,6 C 3,0 C 12,2 km/h (2 Bft)
26.03.2019 16:20 21,6 C 6,3 C 61 % 1020,9 hPa 0,0 l/m 11,3 km/h (2 Bft) N-NW 337 0 min -0,7 C 2,7 C 19,2 km/h (3 Bft)
26.03.2019 16:10 21,7 C 6,3 C 61 % 1020,9 hPa 0,0 l/m 9,5 km/h (2 Bft) SO 135 0 min -0,7 C 3,9 C 4,7 km/h (1 Bft)
26.03.2019 16:00 21,8 C 6,4 C 60 % 1021,0 hPa 0,0 l/m 8,7 km/h (2 Bft) W 270 0 min -0,8 C 4,5 C 5,3 km/h (1 Bft)
26.03.2019 15:50 21,8 C 6,5 C 60 % 1021,0 hPa 0,0 l/m 9,7 km/h (2 Bft) W 270 0 min -0,7 C 3,9 C 6,4 km/h (2 Bft)
26.03.2019 15:40 21,8 C 6,6 C 60 % 1021,1 hPa 0,0 l/m 9,2 km/h (2 Bft) W 270 0 min -0,6 C 4,4 C 12,6 km/h (3 Bft)
26.03.2019 15:30 21,9 C 6,6 C 59 % 1021,1 hPa 0,0 l/m 10,1 km/h (2 Bft) W 270 0 min -0,8 C 3,8 C 9,8 km/h (2 Bft)
26.03.2019 15:20 22,0 C 6,8 C 59 % 1021,2 hPa 0,0 l/m 11,9 km/h (2 Bft) W 270 0 min -0,6 C 2,9 C 14,3 km/h (3 Bft)
26.03.2019 15:10 22,0 C 6,8 C 59 % 1021,2 hPa 0,0 l/m 10,3 km/h (2 Bft) W-NW 292 0 min -0,6 C 3,9 C 12,7 km/h (3 Bft)
26.03.2019 15:00 22,1 C 7,2 C 59 % 1021,3 hPa 0,0 l/m 10,5 km/h (2 Bft) W-SW 247 0 min -0,3 C 4,2 C 9,3 km/h (2 Bft)
26.03.2019 14:50 22,1 C 7,0 C 57 % 1021,3 hPa 0,0 l/m 11,9 km/h (2 Bft) NW 315 0 min -0,9 C 3,1 C 15,0 km/h (3 Bft)
26.03.2019 14:40 22,1 C 7,1 C 58 % 1021,7 hPa 0,0 l/m 11,7 km/h (2 Bft) W-SW 247 0 min -0,6 C 3,3 C 11,6 km/h (2 Bft)
26.03.2019 14:30 22,2 C 7,0 C 59 % 1021,7 hPa 0,0 l/m 10,9 km/h (2 Bft) W-SW 247 0 min -0,5 C 3,7 C 13,5 km/h (3 Bft)
26.03.2019 14:20 22,2 C 6,7 C 59 % 1021,8 hPa 0,0 l/m 11,7 km/h (2 Bft) W 270 0 min -0,7 C 2,9 C 11,7 km/h (2 Bft)
26.03.2019 14:10 22,2 C 6,6 C 59 % 1021,8 hPa 0,0 l/m 11,6 km/h (2 Bft) S 180 0 min -0,8 C 2,8 C 21,9 km/h (4 Bft)
26.03.2019 14:00 22,3 C 6,8 C 59 % 1021,9 hPa 0,0 l/m 10,3 km/h (2 Bft) W-SW 247 0 min -0,6 C 3,9 C 11,9 km/h (2 Bft)
26.03.2019 13:50 22,2 C 7,2 C 58 % 1021,9 hPa 0,0 l/m 13,5 km/h (3 Bft) W-SW 247 0 min -0,5 C 2,5 C 8,5 km/h (2 Bft)
26.03.2019 13:40 22,0 C 6,6 C 59 % 1021,9 hPa 0,0 l/m 12,9 km/h (3 Bft) W 270 0 min -0,8 C 2,1 C 19,6 km/h (3 Bft)
26.03.2019 13:30 22,0 C 6,3 C 60 % 1021,9 hPa 0,0 l/m 11,9 km/h (2 Bft) W 270 0 min -0,9 C 2,3 C 14,0 km/h (3 Bft)
26.03.2019 13:20 22,0 C 6,5 C 60 % 1021,9 hPa 0,0 l/m 11,6 km/h (2 Bft) W 270 0 min -0,7 C 2,7 C 13,4 km/h (3 Bft)
26.03.2019 13:10 22,0 C 6,0 C 60 % 1021,9 hPa 0,0 l/m 11,6 km/h (2 Bft) W 270 0 min -1,2 C 2,1 C 10,6 km/h (2 Bft)
26.03.2019 13:00 22,0 C 6,2 C 63 % 1022,1 hPa 0,0 l/m 11,7 km/h (2 Bft) W 270 0 min -0,3 C 2,3 C 17,2 km/h (3 Bft)
26.03.2019 12:50 21,9 C 5,6 C 64 % 1022,1 hPa 0,0 l/m 14,2 km/h (3 Bft) W-SW 247 0 min -0,7 C 0,2 C 26,4 km/h (4 Bft)
26.03.2019 12:40 21,8 C 5,8 C 66 % 1022,0 hPa 0,0 l/m 12,1 km/h (2 Bft) NW 315 0 min -0,0 C 1,6 C 21,7 km/h (4 Bft)
26.03.2019 12:30 21,8 C 6,1 C 70 % 1022,0 hPa 0,0 l/m 10,5 km/h (2 Bft) W-NW 292 0 min 1,0 C 3,0 C 15,6 km/h (3 Bft)
26.03.2019 12:20 21,5 C 5,3 C 74 % 1021,8 hPa 0,0 l/m 9,7 km/h (2 Bft) W 270 0 min 1,0 C 2,6 C 15,8 km/h (3 Bft)
26.03.2019 12:10 21,4 C 4,6 C 76 % 1021,8 hPa 0,0 l/m 9,7 km/h (2 Bft) W-SW 247 0 min 0,7 C 1,8 C 10,9 km/h (2 Bft)
26.03.2019 12:00 21,2 C 4,4 C 76 % 1022,1 hPa 0,0 l/m 10,3 km/h (2 Bft) O 90 0 min 0,5 C 1,2 C 8,2 km/h (2 Bft)
26.03.2019 11:50 21,2 C 4,5 C 77 % 1022,1 hPa 0,0 l/m 10,0 km/h (2 Bft) W-SW 247 0 min 0,8 C 1,5 C 11,1 km/h (2 Bft)
26.03.2019 11:40 21,2 C 4,4 C 79 % 1022,0 hPa 0,0 l/m 10,1 km/h (2 Bft) W-NW 292 0 min 1,1 C 1,3 C 15,4 km/h (3 Bft)
26.03.2019 11:30 21,1 C 3,7 C 80 % 1022,0 hPa 0,0 l/m 10,3 km/h (2 Bft) NW 315 0 min 0,6 C 0,4 C 10,1 km/h (2 Bft)
26.03.2019 11:20 21,1 C 3,7 C 80 % 1021,9 hPa 0,0 l/m 9,8 km/h (2 Bft) W 270 0 min 0,6 C 0,8 C 12,7 km/h (3 Bft)
26.03.2019 11:10 21,0 C 4,2 C 80 % 1021,9 hPa 0,0 l/m 9,0 km/h (2 Bft) W-SW 247 0 min 1,1 C 1,9 C 7,2 km/h (2 Bft)
26.03.2019 11:00 21,0 C 4,3 C 80 % 1021,8 hPa 0,0 l/m 8,9 km/h (2 Bft) N-NW 337 0 min 1,2 C 2,1 C 13,4 km/h (3 Bft)
26.03.2019 10:50 21,0 C 4,3 C 78 % 1021,8 hPa 0,0 l/m 10,0 km/h (2 Bft) W-NW 292 0 min 0,8 C 1,3 C 14,0 km/h (3 Bft)
26.03.2019 10:40 20,9 C 4,7 C 78 % 1021,6 hPa 0,0 l/m 9,3 km/h (2 Bft) W 270 0 min 1,2 C 2,3 C 5,8 km/h (2 Bft)
26.03.2019 10:30 20,9 C 4,4 C 78 % 1021,6 hPa 0,0 l/m 11,3 km/h (2 Bft) W-SW 247 0 min 0,9 C 0,5 C 16,1 km/h (3 Bft)
26.03.2019 10:20 20,9 C 4,6 C 76 % 1021,6 hPa 0,0 l/m 11,9 km/h (2 Bft) W 270 0 min 0,7 C 0,4 C 19,6 km/h (3 Bft)
26.03.2019 10:10 20,9 C 5,1 C 74 % 1021,6 hPa 0,0 l/m 13,5 km/h (3 Bft) W 270 0 min 0,9 C -0,0 C 13,2 km/h (3 Bft)
26.03.2019 10:00 21,0 C 5,5 C 71 % 1021,4 hPa 0,0 l/m 13,5 km/h (3 Bft) NW 315 0 min 0,7 C 0,5 C 31,7 km/h (5 Bft)
26.03.2019 09:50 21,0 C 6,3 C 69 % 1021,4 hPa 0,0 l/m 10,6 km/h (2 Bft) W-NW 292 0 min 1,0 C 3,1 C 25,4 km/h (4 Bft)
26.03.2019 09:40 20,8 C 7,0 C 70 % 1021,2 hPa 0,0 l/m 10,6 km/h (2 Bft) W 270 0 min 1,9 C 3,9 C 8,2 km/h (2 Bft)
26.03.2019 09:30 20,8 C 6,4 C 70 % 1021,2 hPa 0,0 l/m 10,0 km/h (2 Bft) N-NO 22 0 min 1,3 C 3,6 C 22,2 km/h (4 Bft)
26.03.2019 09:20 20,7 C 6,0 C 71 % 1021,2 hPa 0,0 l/m 10,5 km/h (2 Bft) W-NW 292 0 min 1,1 C 2,8 C 19,6 km/h (3 Bft)
26.03.2019 09:10 20,7 C 5,8 C 73 % 1021,2 hPa 0,0 l/m 9,0 km/h (2 Bft) W 270 0 min 1,3 C 3,7 C 13,2 km/h (3 Bft)
26.03.2019 09:00 20,7 C 6,0 C 73 % 1021,2 hPa 0,0 l/m 9,2 km/h (2 Bft) NW 315 0 min 1,5 C 3,7 C 18,3 km/h (3 Bft)
26.03.2019 08:50 20,5 C 5,9 C 78 % 1021,2 hPa 0,0 l/m 8,2 km/h (2 Bft) W-SW 247 0 min 2,4 C 4,4 C 17,5 km/h (3 Bft)
26.03.2019 08:40 20,4 C 4,8 C 78 % 1021,2 hPa 0,0 l/m 6,9 km/h (2 Bft) W-SW 247 0 min 1,3 C 4,4 C 17,4 km/h (3 Bft)
26.03.2019 08:30 20,4 C 4,6 C 79 % 1021,2 hPa 0,0 l/m 6,0 km/h (2 Bft) W-SW 247 0 min 1,3 C 4,6 C 5,8 km/h (2 Bft)
26.03.2019 08:20 20,3 C 4,3 C 79 % 1021,0 hPa 0,0 l/m 5,1 km/h (1 Bft) W 270 0 min 1,0 C 4,3 C 8,0 km/h (2 Bft)
26.03.2019 08:10 20,2 C 4,2 C 80 % 1021,0 hPa 0,0 l/m 4,8 km/h (1 Bft) W-SW 247 0 min 1,1 C 4,2 C 6,8 km/h (2 Bft)
26.03.2019 08:00 20,0 C 4,1 C 80 % 1020,6 hPa 0,0 l/m 6,0 km/h (2 Bft) W-NW 292 0 min 1,0 C 4,1 C 7,1 km/h (2 Bft)
26.03.2019 07:50 20,0 C 3,9 C 82 % 1020,6 hPa 0,0 l/m 5,1 km/h (1 Bft) W 270 0 min 1,1 C 3,9 C 6,9 km/h (2 Bft)
26.03.2019 07:40 20,2 C 3,7 C 82 % 1021,3 hPa 0,0 l/m 5,0 km/h (1 Bft) SW 225 0 min 0,9 C 3,7 C 6,4 km/h (2 Bft)
26.03.2019 07:30 20,4 C 3,6 C 82 % 1021,3 hPa 0,0 l/m 4,7 km/h (1 Bft) W-SW 247 0 min 0,8 C 3,6 C 16,4 km/h (3 Bft)
26.03.2019 07:20 20,4 C 3,3 C 83 % 1021,2 hPa 0,0 l/m 5,1 km/h (1 Bft) S-SO 157 0 min 0,7 C 3,3 C 4,3 km/h (1 Bft)
26.03.2019 07:10 20,2 C 3,2 C 83 % 1021,2 hPa 0,0 l/m 5,8 km/h (2 Bft) W 270 0 min 0,6 C 3,2 C 6,1 km/h (2 Bft)
26.03.2019 07:00 20,2 C 3,0 C 83 % 1020,9 hPa 0,0 l/m 6,9 km/h (2 Bft) W 270 0 min 0,4 C 2,5 C 4,3 km/h (1 Bft)
26.03.2019 06:50 20,1 C 2,9 C 84 % 1020,9 hPa 0,0 l/m 7,1 km/h (2 Bft) W-SW 247 0 min 0,5 C 2,2 C 8,7 km/h (2 Bft)
26.03.2019 06:40 20,0 C 2,7 C 83 % 1020,8 hPa 0,0 l/m 6,8 km/h (2 Bft) W-SW 247 0 min 0,1 C 2,3 C 5,3 km/h (1 Bft)
26.03.2019 06:30 20,0 C 2,7 C 83 % 1020,8 hPa 0,0 l/m 6,6 km/h (2 Bft) NW 315 0 min 0,1 C 2,5 C 16,1 km/h (3 Bft)
26.03.2019 06:20 20,0 C 2,6 C 83 % 1020,6 hPa 0,0 l/m 4,7 km/h (1 Bft) W-NW 292 0 min 0,0 C 2,6 C 6,9 km/h (2 Bft)
26.03.2019 06:10 20,0 C 2,5 C 83 % 1020,6 hPa 0,0 l/m 3,2 km/h (1 Bft) W-NW 292 0 min -0,1 C 2,5 C 4,2 km/h (1 Bft)
26.03.2019 06:00 20,0 C 2,4 C 83 % 1020,6 hPa 0,0 l/m 4,2 km/h (1 Bft) W 270 0 min -0,2 C 2,4 C 3,4 km/h (1 Bft)
26.03.2019 05:50 19,9 C 2,4 C 83 % 1020,6 hPa 0,0 l/m 3,7 km/h (1 Bft) W 270 0 min -0,2 C 2,4 C 5,3 km/h (1 Bft)
26.03.2019 05:40 20,0 C 2,4 C 83 % 1020,6 hPa 0,0 l/m 4,2 km/h (1 Bft) W 270 0 min -0,2 C 2,4 C 4,3 km/h (1 Bft)
26.03.2019 05:30 20,0 C 2,4 C 83 % 1020,6 hPa 0,0 l/m 4,2 km/h (1 Bft) W-NW 292 0 min -0,2 C 2,4 C 4,3 km/h (1 Bft)
26.03.2019 05:20 20,0 C 2,4 C 84 % 1020,1 hPa 0,0 l/m 4,5 km/h (1 Bft) W 270 0 min -0,0 C 2,4 C 2,7 km/h (1 Bft)
26.03.2019 05:10 20,0 C 2,4 C 84 % 1020,1 hPa 0,0 l/m 5,0 km/h (1 Bft) W 270 0 min -0,0 C 2,4 C 3,7 km/h (1 Bft)
26.03.2019 05:00 20,0 C 2,5 C 84 % 1020,6 hPa 0,0 l/m 4,3 km/h (1 Bft) W 270 0 min 0,1 C 2,5 C 5,6 km/h (1 Bft)
26.03.2019 04:50 20,0 C 2,6 C 84 % 1020,6 hPa 0,0 l/m 3,5 km/h (1 Bft) W 270 0 min 0,2 C 2,6 C 3,7 km/h (1 Bft)
26.03.2019 04:40 20,1 C 2,6 C 84 % 1020,4 hPa 0,0 l/m 3,5 km/h (1 Bft) W 270 0 min 0,2 C 2,6 C 3,1 km/h (1 Bft)
26.03.2019 04:30 20,1 C 2,6 C 83 % 1020,4 hPa 0,0 l/m 2,6 km/h (1 Bft) W 270 0 min 0,0 C 2,6 C 3,1 km/h (1 Bft)
26.03.2019 04:20 20,1 C 2,6 C 83 % 1020,2 hPa 0,0 l/m 4,3 km/h (1 Bft) W-NW 292 0 min 0,0 C 2,6 C 3,9 km/h (1 Bft)
26.03.2019 04:10 20,1 C 2,7 C 84 % 1020,2 hPa 0,0 l/m 4,5 km/h (1 Bft) W 270 0 min 0,3 C 2,7 C 6,8 km/h (2 Bft)
26.03.2019 04:00 20,2 C 2,7 C 84 % 1020,3 hPa 0,0 l/m 4,3 km/h (1 Bft) W 270 0 min 0,3 C 2,7 C 4,0 km/h (1 Bft)
26.03.2019 03:50 20,2 C 2,7 C 84 % 1020,3 hPa 0,0 l/m 4,8 km/h (1 Bft) W-NW 292 0 min 0,3 C 2,7 C 5,1 km/h (1 Bft)
26.03.2019 03:40 20,2 C 2,7 C 85 % 1020,2 hPa 0,0 l/m 5,0 km/h (1 Bft) N 360 0 min 0,4 C 2,7 C 7,2 km/h (2 Bft)
26.03.2019 03:30 20,3 C 2,7 C 85 % 1020,2 hPa 0,0 l/m 5,1 km/h (1 Bft) W 270 0 min 0,4 C 2,7 C 6,1 km/h (2 Bft)
26.03.2019 03:20 20,3 C 2,7 C 85 % 1020,2 hPa 0,0 l/m 6,1 km/h (2 Bft) W 270 0 min 0,4 C 2,7 C 8,7 km/h (2 Bft)
26.03.2019 03:10 20,2 C 2,8 C 85 % 1020,2 hPa 0,0 l/m 6,1 km/h (2 Bft) W-NW 292 0 min 0,5 C 2,8 C 9,2 km/h (2 Bft)
26.03.2019 03:00 20,2 C 2,8 C 86 % 1019,9 hPa 0,0 l/m 5,8 km/h (2 Bft) W-SW 247 0 min 0,7 C 2,8 C 6,9 km/h (2 Bft)
26.03.2019 02:50 20,4 C 2,8 C 86 % 1019,9 hPa 0,0 l/m 6,1 km/h (2 Bft) W 270 0 min 0,7 C 2,8 C 5,0 km/h (1 Bft)
26.03.2019 02:40 20,4 C 2,9 C 86 % 1019,9 hPa 0,0 l/m 6,3 km/h (2 Bft) W-NW 292 0 min 0,8 C 2,9 C 5,8 km/h (2 Bft)
26.03.2019 02:30 20,4 C 2,9 C 86 % 1019,9 hPa 0,0 l/m 5,8 km/h (2 Bft) W-NW 292 0 min 0,8 C 2,9 C 6,9 km/h (2 Bft)
26.03.2019 02:20 20,4 C 2,9 C 86 % 1019,6 hPa 0,0 l/m 5,8 km/h (2 Bft) W-NW 292 0 min 0,8 C 2,9 C 5,8 km/h (2 Bft)
26.03.2019 02:10 20,4 C 3,0 C 85 % 1019,6 hPa 0,0 l/m 6,1 km/h (2 Bft) W 270 0 min 0,7 C 3,0 C 6,8 km/h (2 Bft)
26.03.2019 02:00 20,4 C 3,0 C 85 % 1019,6 hPa 0,0 l/m 5,6 km/h (1 Bft) W-SW 247 0 min 0,7 C 3,0 C 7,6 km/h (2 Bft)
26.03.2019 01:50 20,5 C 3,0 C 86 % 1019,6 hPa 0,0 l/m 5,8 km/h (2 Bft) W 270 0 min 0,9 C 3,0 C 6,3 km/h (2 Bft)
26.03.2019 01:40 20,5 C 3,0 C 86 % 1019,5 hPa 0,0 l/m 6,1 km/h (2 Bft) W-NW 292 0 min 0,9 C 3,0 C 7,9 km/h (2 Bft)
26.03.2019 01:30 20,5 C 3,0 C 86 % 1019,5 hPa 0,0 l/m 5,6 km/h (1 Bft) NW 315 0 min 0,9 C 3,0 C 8,9 km/h (2 Bft)
26.03.2019 01:20 20,6 C 3,0 C 86 % 1019,4 hPa 0,0 l/m 6,1 km/h (2 Bft) W 270 0 min 0,9 C 3,0 C 8,0 km/h (2 Bft)
26.03.2019 01:10 20,6 C 3,0 C 86 % 1019,4 hPa 0,0 l/m 5,5 km/h (1 Bft) SW 225 0 min 0,9 C 3,0 C 14,8 km/h (3 Bft)
26.03.2019 01:00 20,6 C 2,9 C 87 % 1019,1 hPa 0,0 l/m 4,8 km/h (1 Bft) N 360 0 min 1,0 C 2,9 C 4,7 km/h (1 Bft)
26.03.2019 00:50 20,6 C 3,0 C 87 % 1019,1 hPa 0,0 l/m 5,8 km/h (2 Bft) W-SW 247 0 min 1,1 C 3,0 C 5,5 km/h (1 Bft)
26.03.2019 00:40 20,7 C 3,0 C 87 % 1019,0 hPa 0,0 l/m 6,1 km/h (2 Bft) NW 315 0 min 1,1 C 3,0 C 5,8 km/h (2 Bft)
26.03.2019 00:30 20,7 C 2,9 C 88 % 1019,0 hPa 0,0 l/m 5,1 km/h (1 Bft) NW 315 0 min 1,1 C 2,9 C 8,2 km/h (2 Bft)
26.03.2019 00:20 20,7 C 2,9 C 88 % 1018,8 hPa 0,0 l/m 6,0 km/h (2 Bft) W 270 0 min 1,1 C 2,9 C 12,6 km/h (3 Bft)
26.03.2019 00:10 20,7 C 2,8 C 88 % 1018,8 hPa 0,0 l/m 5,1 km/h (1 Bft) W-NW 292 0 min 1,0 C 2,8 C 6,1 km/h (2 Bft)
26.03.2019 00:00 20,8 C 2,6 C 88 % 1018,5 hPa 0,0 l/m 5,8 km/h (2 Bft) W-SW 247 0 min 0,8 C 2,6 C 5,3 km/h (1 Bft)
_ Min-Zeit 05:50 05:10 14:50 00:00 - 04:30 - - - 13:10 10:10 22:10
Minimum _ 19,9 C 2,4 C 57 % 1018,5 hPa - 2,6 km/h (1 Bft) - - - -1,2 C -0,0 C 2,4 km/h (1 Bft)
_ Max-Zeit 14:00 13:50 00:00 23:10 00:00 12:50 - - 00:00 08:50 18:00 10:00
Maximum _ 22,3 C 7,2 C 88 % 1024,3 hPa 0,0 l/m 14,2 km/h
W-SW (3 Bft)
- - 0 min 2,4 C 5,8 C 31,7 km/h
NW (5 Bft)
Durchschnitt _ 21,0 C 4,5 C 77 % 1021,2 hPa #0,0 l/m 7,6 km/h (2 Bft) W - #0 min. 0,6 C 3,1 C 9,8 km/h (2 Bft)

©2019 Markus Bahr